Regional Weather Roundup
Issued by NWS

Home | Current Version | Previous Version | Graphics & Text | Print | Product List | Glossary On
Versions: 1 2 3 4 5 6 7 8 9 10 11 12 13 14 15 16 17 18 19 20 21 22 23 24 25 26 27 28 29 30 31 32 33 34 35 36 37 38 39 40 41 42 43 44 45 46 47 48 49 50
000
ASUS43 KBIS 200820
RWRND

NORTH DAKOTA REGIONAL WEATHER ROUNDUP
NATIONAL WEATHER SERVICE BISMARCK ND
200 AM CST SAT DEC 20 2014

NOTE: "FAIR" INDICATES FEW OR NO CLOUDS BELOW 12,000 FEET WITH NO
SIGNIFICANT WEATHER AND/OR OBSTRUCTIONS TO VISIBILITY.


NDZ001>003-009>011-017-200900-
NORTHWEST NORTH DAKOTA

CITY           SKY/WX    TMP DP  RH WIND       PRES   REMARKS
WILLISTON      FOG       13  11  92 CALM      29.88F VSB 1/4
MINOT          FOG       21  19  92 CALM      29.92F VSB 1/2
MINOT AFB      FRZ DRZL  22  22 100 E1        29.92F VSB 1/2
$$

NDZ018>021-031>035-040>046-200900-
SOUTHWEST NORTH DAKOTA

CITY           SKY/WX    TMP DP  RH WIND       PRES   REMARKS
BISMARCK       FOG       15  14  95 NE5       29.95S VSB 1   WCI   8
DICKINSON      CLEAR     23  17  78 S7        29.85F WCI  15
GARRISON         N/A     22  19  89 SE5       29.90F WCI  16
HETTINGER ARPT CLEAR     20  16  84 CALM      29.89F
$$

NDZ004>008-012>016-024-026-027-054-200900-
NORTHEAST NORTH DAKOTA

CITY           SKY/WX    TMP DP  RH WIND       PRES   REMARKS
GRAND FORKS    CLOUDY    29  27  92 CALM      30.00R
GRND FRKS AFB  CLOUDY    28  28 100 W2        30.00R
DEVILS LAKE    CLOUDY    23  16  74 CALM      29.95S
$$

NDZ022-023-025-028>030-036>039-047>053-200900-
SOUTHEAST NORTH DAKOTA

CITY           SKY/WX    TMP DP  RH WIND       PRES   REMARKS
FARGO          CLOUDY    31  28  89 S12       30.02R
JAMESTOWN      FOG       21  20  96 S5        29.97S VSB 1/4 WCI  15
$$



USA.gov is the U.S. government's official web portal to all federal, state and local government web resources and services.